Location: Ocean City
(38.3360°N, 75.0850°W)
Time: 21:22:24
(UTC-04:00)

NO-84 - Visible Passes

Search period start: 20 May 2019 00:00
Search period end: 30 May 2019 00:00
Orbit: 334 x 520 km, 55.0° (Epoch: 15 May)

Date Brightness Start Highest point End Pass type
(mag) Time Alt. Az. Time Alt. Az. Time Alt. Az.
25 May ? 04:34:15 10° SSE 04:36:04 13° ESE 04:37:56 10° E visible
27 May ? 04:39:09 12° SSW 04:42:20 42° SE 04:46:03 10° ENE visible
28 May ? 03:55:56 19° SSE 03:57:27 24° SE 04:00:37 10° ENE visible
29 May ? 03:12:36 14° ESE 03:12:37 14° ESE 03:14:39 10° E visible
29 May ? 04:45:43 14° WSW 04:48:52 58° NW 04:52:44 10° NE visible
